Regional Weather Roundup
Issued by NWS Albany, NY

Home | Current Version | Previous Version | Text Only | Print | Product List | Glossary On
Versions: 1 2 3 4 5 6 7 8 9 10 11 12 13 14 15 16 17 18 19 20 21 22 23 24 25 26 27 28 29 30 31 32 33 34 35 36 37 38 39 40 41 42 43 44 45 46 47 48 49 50
000
ASUS41 KALY 301410
RWRALY

NEW YORK STATE HOURLY WEATHER ROUNDUP
NATIONAL WEATHER SERVICE ALBANY NY
1000 AM EDT THU JUL 30 2015

NOTE: "FAIR" INDICATES FEW OR NO CLOUDS BELOW 12,000 FEET WITH NO
SIGNIFICANT WEATHER AND/OR NO OBSTRUCTIONS TO VISIBILITY.

NYZ032-033-038>043-046>054-057>066-NYZ062>081-301500-
EAST


CITY           SKY/WX    TMP DP  RH WIND       PRES   REMARKS
ALBANY         PTSUNNY   80  70  71 S13       29.83F
GLENS FALLS    MOSUNNY   80  70  71 S8        29.81F
POUGHKEEPSIE   CLOUDY    82  72  71 S5        29.86F
NEWBURGH       CLOUDY    81  75  83 SW12      29.89F
MONTGOMERY     CLOUDY    81  74  79 SW14      29.87F
WHITE PLAINS   PTSUNNY   79  73  82 S5        29.90F
ISLIP          CLOUDY    81  73  76 SW15      29.90S
NEW YORK CITY  CLOUDY    81  72  74 SW8       29.89F
CENTRAL PARK   CLOUDY    80  72  76 MISG      29.92F
$$

NYZ005>009-017-018-044>046-055-056-301500-
CENTRAL


CITY           SKY/WX    TMP DP  RH WIND       PRES   REMARKS
FULTON         CLOUDY    74  71  91 SW8       29.82S FOG
SYRACUSE       HVY RAIN  72  72 100 W12       29.82S VSB 1
ROME           HVY RAIN  74  72  93 W7        29.83S FOG
ELMIRA         CLOUDY    75  73  93 W7        29.86F
BINGHAMTON     HVY RAIN  74  72  93 W8        29.89S VSB 3/4
MONTICELLO     CLOUDY    75  72  88 CALM      29.93F
$$

NYZ026>034-041>043-301500-
NORTH


CITY           SKY/WX    TMP DP  RH WIND       PRES   REMARKS
WATERTOWN      CLOUDY    73  71  93 SW9       29.79R FOG
FORT DRUM      NOT AVBL
MASSENA        HVY RAIN  72  69  90 SW10      29.76R VSB 1
SARANAC LAKE   CLOUDY    74  67  78 SW7       29.82S
PLATTSBURGH    PTSUNNY   76  69  79 VRB3      29.75F
$$

NYZ001>004-010>016-019>021-301500-
WEST


CITY           SKY/WX    TMP DP  RH WIND       PRES   REMARKS
NIAGARA FALLS  MOSUNNY   79  59  50 W12       29.85F
BUFFALO        MOSUNNY   79  57  46 W10       29.87S
DUNKIRK        MOSUNNY   76  64  66 SW10      29.90S
JAMESTOWN      PTSUNNY   72  61  68 SW12      29.97R
WELLSVILLE     MOSUNNY   74  65  73 W10       29.96S
ROCHESTER      PTSUNNY   77  70  79 W14       29.85R
PENN YAN       CLOUDY    75  70  84 W6        29.87S
$$

             KEY
       WCI = WIND CHILL INDEX
       VSB = VISIBILITY
       HX  = HEAT INDEX
$$



USA.gov is the U.S. government's official web portal to all federal, state and local government web resources and services.